sat.trackr.live / text

‹ back to catalog

STARLINK-32167

NORAD 60268 · 2024-131P

PAYLOAD ACTIVE UNKNOWN

§ Identity

Operator
Country
US
Launch date
2024-07-27
Launch site
AFETR
Launch vehicle
Mass (kg)
RCS (m²)

Purposes: comms

External: N2YO · Heavens-Above · Gunter

§ Orbital elements

Epoch: 2026-09-21T07:02:48.164064Z

Period
93.85 min
Inclination
53.1578°
Eccentricity
0.0001448
Mean motion
15.34387613 rev/d
Perigee alt
461.7 km
Apogee alt
463.7 km
Semi-major
6,840.9 km
B*
-7.0200e-7
RAAN
221.9566°
Arg perigee
85.5660°
Mean anomaly
274.5508°
Rev number
12,168

§ Raw data

STARLINK-321671 60268U 24131P   26264.29361301 -.00000400  00000+0 -70200-6 0  99982 60268  53.1578 221.9566 0001448  85.5660 274.5508 15.34387613121681

JSON: /api/v1/satellites/60268 · /tle

For live sub-satellite position, see the globe view (requires WebGL).

§ Visibility from observer

Set your observer location to see the next 7 days of passes ≥ 10°. The values pass through the URL so the page stays shareable.

No JS? Fill the form by hand. The geolocation button needs JavaScript.